Hatteras, NC

2:59 PM EDT on June 22, 2017 (GMT -0400)
Mitchell

Weather History for KHSE - September, 2014

Change the Weather History Date:

Tuesday, September 9, 2014

  Actual Average Record
Temperature  
Mean Temperature 75 °F 76 °F  
Max Temperature 79 °F 81 °F 92 °F (1978)
Min Temperature 71 °F 71 °F 56 °F (1958)
Degree Days  
Heating Degree Days 0 0  
Month to date heating degree days 0 0  
Since 1 July heating degree days 0 0  
Cooling Degree Days 10 11  
Month to date cooling degree days 136 105  
Year to date cooling degree days 1512 1411  
Growing Degree Days 24 (Base 50)    
Moisture  
Dew Point 73 °F    
Average Humidity 90    
Maximum Humidity 100    
Minimum Humidity 79    
Precipitation  
Precipitation 1.31 in 0.22 in 2.53 in (1968)
Month to date precipitation 2.69 2.02  
Year to date precipitation 43.74 39.21  
Snow  
Snow 0.00 in - - ()
Month to date snowfall 0.0  
Since 1 July snowfall 0.0  
Snow Depth 0.00 in    
Sea Level Pressure  
Sea Level Pressure 30.03 in    
Wind  
Wind Speed 9 mph (WSW)    
Max Wind Speed 22 mph    
Max Gust Speed 28 mph    
Visibility 6 miles    
Events Fog , Rain    
T = Trace of Precipitation, MM = Missing Value Source: NWS Daily Summary

Daily Weather History Graph

Daily Weather History Graph

Search for Another Location

Airport or City:

Trip Planner

Search our weather history database for the weather conditions in past years. The results will help you decide how hot, cold, wet, or windy it might be!

Date:

Astronomy

Sep. 09, 2014 Rise Set
Actual Time 6:40 AM EDT 7:18 PM EDT
Civil Twilight 6:15 AM EDT 7:43 PM EDT
Nautical Twilight 5:45 AM EDT 8:13 PM EDT
Astronomical Twilight 5:14 AM EDT 8:44 PM EDT
Moon 7:39 PM EDT (9/9) 7:12 AM EDT (9/9)
Length of Visible Light 13h 28m
Length of Day
12h 37m
Waxing Gibbous, 99% of the Moon is Illuminated
Sep 9
Waxing Gibbous
Sep 15
Last Quarter
Sep 24
New
Oct 1
First Quarter
Oct 8
Full

Hourly Weather History & Observations

Time (EDT) Temp. Dew Point Humidity Pressure Visibility Wind Dir Wind Speed Gust Speed Precip Events Conditions
12:27 AM 73.4 °F 73.4 °F 100% 30.09 in 1.5 mi West 13.8 mph 26.5 mph N/A Rain Heavy Rain
12:31 AM 72.0 °F 72.0 °F 100% 30.10 in 0.8 mi Variable 5.8 mph 26.5 mph 0.32 in Rain Heavy Rain
12:34 AM 72.0 °F 72.0 °F 100% 30.09 in 0.8 mi NW 6.9 mph - 0.43 in Rain Heavy Rain
12:47 AM 71.6 °F 71.6 °F 100% 30.09 in 2.0 mi West 9.2 mph - 0.70 in Rain Heavy Rain
12:51 AM 71.1 °F 71.1 °F 100% 30.08 in 3.0 mi WSW 12.7 mph 19.6 mph 0.71 in Rain Rain
1:04 AM 72.0 °F 72.0 °F 100% 30.08 in 3.0 mi WSW 15.0 mph 23.0 mph 0.05 in Rain Rain
1:51 AM 72.0 °F 72.0 °F 100% 30.06 in 10.0 mi SSW 8.1 mph - 0.15 in Rain Light Rain
2:51 AM 73.0 °F 73.0 °F 100% 30.06 in 10.0 mi SSE 10.4 mph - 0.00 in   Overcast
3:51 AM 73.0 °F 73.0 °F 100% 30.05 in 10.0 mi South 12.7 mph 20.7 mph 0.04 in Rain Light Rain
6:44 AM 75.0 °F 75.0 °F 100% 30.03 in 2.5 mi South 18.4 mph 23.0 mph 0.01 in Rain Heavy Rain
6:51 AM 73.9 °F 73.9 °F 100% 30.04 in 1.2 mi SW 10.4 mph 27.6 mph 0.18 in Rain Rain
7:01 AM 73.4 °F 73.4 °F 100% 30.04 in 2.0 mi West 6.9 mph - N/A Rain Rain
7:09 AM 73.0 °F 73.0 °F 100% 30.04 in 3.0 mi West 4.6 mph - 0.19 in Rain Rain
7:20 AM 73.0 °F 73.0 °F 100% 30.05 in 1.8 mi SW 10.4 mph 21.9 mph 0.26 in Rain Heavy Rain
7:30 AM 71.1 °F 71.1 °F 100% 30.05 in 1.2 mi WSW 11.5 mph 28.8 mph 0.45 in Rain Heavy Rain
7:33 AM 71.1 °F 71.1 °F 100% 30.05 in 1.5 mi WSW 8.1 mph 23.0 mph 0.51 in Rain Heavy Rain
7:41 AM 72.0 °F 72.0 °F 100% 30.05 in 3.0 mi SW 8.1 mph - 0.55 in Rain Rain
7:51 AM 72.0 °F 72.0 °F 100% 30.05 in 4.0 mi SSW 6.9 mph - 0.57 in Rain Light Rain
8:41 AM 73.9 °F 73.9 °F 100% 30.05 in 1.5 mi SW 10.4 mph 17.3 mph 0.08 in Rain Rain
8:43 AM 73.9 °F 73.9 °F 100% 30.05 in 1.0 mi SW 17.3 mph 26.5 mph 0.10 in Rain Heavy Rain
8:48 AM 71.6 °F 71.6 °F 100% 30.05 in 0.5 mi SSW 18.4 mph 26.5 mph 0.25 in Fog , Rain Heavy Rain
8:51 AM 72.0 °F 72.0 °F 100% 30.06 in 0.5 mi SSW 15.0 mph 26.5 mph 0.31 in Fog , Rain Heavy Rain
8:55 AM 71.1 °F 71.1 °F 100% 30.05 in 1.0 mi South 10.4 mph 24.2 mph 0.03 in Rain Rain
9:00 AM 71.1 °F 71.1 °F 100% 30.05 in 2.0 mi SSW 8.1 mph - 0.05 in Rain Light Rain
9:08 AM 72.0 °F 72.0 °F 100% 30.05 in 8.0 mi South 9.2 mph - 0.05 in Rain Light Rain
9:51 AM 75.0 °F 73.9 °F 96% 30.05 in 9.0 mi WSW 8.1 mph - 0.06 in   Overcast
11:51 AM 77.0 °F 75.0 °F 94% 30.03 in 10.0 mi WSW 9.2 mph - N/A   Clear
1:51 PM 77.0 °F 73.9 °F 90% 30.01 in 10.0 mi WSW 12.7 mph - N/A   Clear
4:09 PM 77.0 °F 73.0 °F 88% 29.99 in 10.0 mi WSW 6.9 mph - N/A   Overcast
4:21 PM 75.9 °F 73.0 °F 91% 29.98 in 10.0 mi WSW 8.1 mph - N/A   Overcast
4:28 PM 77.0 °F 73.0 °F 88% 29.98 in 10.0 mi WSW 6.9 mph - N/A   Overcast
4:51 PM 75.9 °F 72.0 °F 87% 29.98 in 10.0 mi WSW 8.1 mph - N/A   Mostly Cloudy
5:46 PM 78.8 °F 73.4 °F 83% 29.97 in 10.0 mi WSW 10.4 mph - N/A   Mostly Cloudy
5:51 PM 78.1 °F 72.0 °F 81% 29.97 in 10.0 mi West 10.4 mph - N/A   Mostly Cloudy
6:51 PM 75.0 °F 73.0 °F 94% 29.98 in 10.0 mi West 6.9 mph - N/A   Mostly Cloudy
7:24 PM 75.9 °F 73.0 °F 91% 29.97 in 10.0 mi West 9.2 mph - N/A   Overcast
7:40 PM 75.0 °F 73.0 °F 94% 29.97 in 10.0 mi West 8.1 mph - N/A   Overcast
7:51 PM 75.0 °F 73.0 °F 94% 29.97 in 10.0 mi West 5.8 mph - N/A   Overcast
8:01 PM 75.0 °F 73.0 °F 94% 29.97 in 10.0 mi West 5.8 mph - N/A   Overcast
8:19 PM 75.0 °F 73.9 °F 96% 29.98 in 7.0 mi North 6.9 mph - 0.00 in Rain Light Rain
8:28 PM 73.9 °F 73.9 °F 100% 29.99 in 5.0 mi NNE 6.9 mph - 0.02 in Rain Light Rain
8:39 PM 73.0 °F 73.0 °F 100% 29.99 in 7.0 mi North 8.1 mph - 0.03 in Rain Light Rain
8:51 PM 73.0 °F 73.0 °F 100% 30.00 in 10.0 mi Variable 6.9 mph - 0.03 in   Overcast
9:33 PM 73.0 °F 73.0 °F 100% 30.00 in 10.0 mi NNE 8.1 mph - N/A   Overcast
9:51 PM 73.0 °F 72.0 °F 96% 30.00 in 10.0 mi Variable 6.9 mph - N/A   Overcast
10:32 PM 73.0 °F 71.1 °F 93% 30.01 in 10.0 mi North 8.1 mph - N/A   Scattered Clouds
10:51 PM 73.9 °F 71.1 °F 91% 30.01 in 10.0 mi North 5.8 mph - N/A   Partly Cloudy
11:14 PM 73.9 °F 72.0 °F 93% 30.01 in 10.0 mi Variable 5.8 mph - N/A   Mostly Cloudy
11:47 PM 73.4 °F 71.6 °F 94% 30.01 in 10.0 mi Variable 5.8 mph - N/A   Overcast
11:51 PM 73.9 °F 72.0 °F 93% 30.01 in 10.0 mi Variable 6.9 mph - N/A   Overcast